Regional Weather Roundup
Issued by NWS Austin/San Antonio, TX

Home | Current Version | Previous Version | Text Only | Print | Product List | Glossary On
Versions: 1 2 3 4 5 6 7 8 9 10 11 12 13 14 15 16 17 18 19 20 21 22 23 24 25 26 27 28 29 30 31 32 33 34 35 36 37 38 39 40 41 42 43 44 45 46 47 48 49 50
000
ASUS44 KEWX 290911
RWREWX
SOUTH TEXAS REGIONAL WEATHER ROUNDUP
NATIONAL WEATHER SERVICE AUSTIN/SAN ANTONIO TX
400 AM CDT THU JUN 29 2017

NOTE: "FAIR" INDICATED FEW OR NO CLOUDS BELOW 12,000 FEET WITH NO
SIGNIFICANT WEATHER AND/OR OBSTRUCTIONS TO VISIBILITY.

* - THESE STATIONS ARE NOT NWS OR FAA STATIONS...AND ARE NOT SUBJECT
    TO NWS AND FAA QUALITY CONTROL.

TXZ171-172-183>190-291000-
TEXAS HILL COUNTRY AND EDWARDS PLATEAU

CITY           SKY/WX    TMP DP  RH WIND       PRES   REMARKS
JUNCTION       CLEAR     73  68  84 S5        29.88F
*LLANO         CLEAR     73  72  94 CALM      29.90F
BURNET         CLOUDY    75  71  87 SE5       29.90S
*HORSESHOE BAY CLEAR     74  71  90 MISG      29.87S
*KERRVILLE     CLOUDY    74  72  93 S8        29.90S
*FREDERICKSBRG CLEAR     72  69  90 S5        29.90S
*ROCKSPRINGS   PTCLDY    72  72 100 S10       29.93S
*BOERNE STAGE  CLOUDY    73  70  88 S6        29.90F
*CASTROVILLE   CLEAR     74  73  96 CALM      29.87S
HONDO          CLEAR     75  72  90 E5        29.86F
*UVALDE        CLEAR     71  70  95 CALM      29.85F
DEL RIO        CLEAR     77  70  79 SE9       29.81F
LAUGHLIN AFB   PTCLDY    76  71  82 SE12      29.82F
CARRIZO SPRGS  CLEAR     75  72  88 SE3       29.81F
*EAGLE PASS    SUNNY     75  70  83 E5        29.81F
$$

TXZ173-191>194-202-209-217>225-228-291000-
CENTRAL AND SOUTH CENTRAL TEXAS

CITY           SKY/WX    TMP DP  RH WIND       PRES   REMARKS
GEORGETOWN     PTCLDY    75  70  83 S3        29.87S
AUSTIN/BERGSTM MOCLDY    74  73  97 CALM      29.86S
AUSTIN/MABRY   CLOUDY    77  73  87 CALM      29.87F
*AUSTIN/EXEC     N/A     73  73 100 CALM      29.87F
*LAGO VISTA    MOCLDY    75  73  92 SE3       29.88F
SAN MARCOS     CLOUDY    75  73  94 CALM      29.87F
NEW BRAUNFELS  PTCLDY    72  70  93 CALM      29.85F FOG
RANDOLPH AFB   FOG       73  73 100 SE3       29.85F VSB 1
PT SAN ANTONIO CLEAR     74  72  93 SE5       29.84F
SAN ANTONIO    PTCLDY    76  72  87 SE5       29.87F
STINSON FIELD  CLEAR     76  72  87 CALM      29.83F
*LA GRANGE     CLEAR     76  75  97 CALM      29.83F
*GIDDINGS      PTCLDY    74  72  94 CALM      29.86F
*GONZALES      CLEAR     75  75 100 CALM      29.84F
$$

TXZ163>164-176>182-195>201-210>213-226-227-235-291000-
SOUTHEAST TEXAS

CITY           SKY/WX    TMP DP  RH WIND       PRES   REMARKS
COLLEGE STN    CLEAR     74  72  93 SE3       29.86F
*BRYAN         CLEAR     72  72 100 CALM      29.88S
*CALDWELL      NOT AVBL
*CROCKETT      CLEAR     72  72 100 CALM      29.91S
*BRENHAM       PTCLDY    75  74  96 CALM      29.86F
HUNTSVILLE     PTCLDY    75  69  81 CALM      29.87F
CONROE         PTCLDY    72  70  93 CALM      29.86F
HOUSTON BUSH   PTCLDY    75  73  93 SE5       29.85F
HOUSTON HOBBY  PTCLDY    78  75  90 CALM      29.85R
*HOUSTON SW AP CLEAR     74  73  95 CALM      29.86S
PEARLAND       PTCLDY    78  75  90 CALM      29.86S
HOUSTON HOOKS  CLEAR     76  72  87 E3        29.85F
ELLINGTON FLD  PTCLDY    77  73  88 CALM      29.87
SUGAR LAND     CLEAR     75  74  96 N3        29.85S
*HOUSTON EXEC  CLEAR     73  73 100 CALM      29.86F
*CLEVELAND MUN CLOUDY    73  71  96 CALM      29.87S
*WHARTON       CLEAR     74  72  95 CALM      29.85F
*COLUMBUS      FAIR      73  72  95 CALM      29.85F
*EAGLE LAKE    PTSUNNY   75  75 100 E3        29.84F
$$

TXZ214>216-236>238-291000-
THE UPPER TEXAS COAST

CITY           SKY/WX    TMP DP  RH WIND       PRES   REMARKS
*ORANGE        CLOUDY    78  77  98 S7        29.89S
PORT ARTHUR      N/A    N/A N/A N/A MISG      29.86F
GALVESTON      CLOUDY    79  77  94 S14       29.85F
ANGLETON       PTCLDY    75  74  96 CALM      29.85R
*BAY CITY      PTCLDY    75  75  99 CALM      29.84S
PALACIOS       LGT RAIN  77  76  96 S12       29.83F
$$

TXZ229>234-239>247-291000-
TEXAS COASTAL BEND AND RIO GRANDE PLAINS

CITY           SKY/WX    TMP DP  RH WIND       PRES   REMARKS
VICTORIA       CLEAR     75  73  93 NE5       29.84F
*BEEVILLE      CLEAR    N/A N/A N/A E3        29.83F
ROCKPORT       CLEAR     79  76  90 CALM      29.82F
*PORT ARANSAS  MOCLDY    82  76  81 S12G20    29.82F
*PORT LAVACA   PTCLDY    76  76 100 CALM      29.83F
*INGLESIDE     CLEAR     82  78  87 MISG      29.82S HX  90
CORPUS CHRISTI PTCLDY    76  76 100 S3        29.82F
CORPUS NAS     PTCLDY    83  78  85 S8G18     29.81F HX  93
*ROBSTOWN      CLEAR     78  32  18 S5        29.82F
ALICE          CLEAR     73  72  96 S5        29.82F
KINGSVILLE NAS CLEAR     77  77 100 S5        29.82F
COTULLA        CLEAR     77  73  87 SE6       29.82F
*FAITH RANCH   CLEAR     79  73  83 MISG      29.81F
LAREDO         CLEAR     80  74  81 SE8       29.82S
$$

TXZ248>255-291000-
DEEP SOUTH TEXAS

CITY           SKY/WX    TMP DP  RH WIND       PRES   REMARKS
BROWNSVILLE    CLEAR     78  77  96 S8        29.84F
PORT ISABEL    CLEAR     80  78  94 S9        29.82F
*SOUTH PADRE   NOT AVBL
HARLINGEN      CLEAR     78  78 100 S9        29.81F
*HEBBRONVILLE  CLEAR     75  73  93 S3        29.84S
MCALLEN        CLEAR     81  77  88 SE10      29.82F
*WESLACO       CLEAR     78  76  93 S6        29.81F
FALFURRIAS     CLEAR     78  76  93 SE6       29.82S
EDINBURG       MOCLDY    82  76  83 S7        29.82S
*ZAPATA        CLEAR     78  75  90 E5        29.80F
$$

TXZ213>215-236>238-242>244-246-247-251-254-255-291000-
CMAN STATIONS

STATION/POSITION TIME  TEMP    WIND        PRES    WAVE
                       AIR SEA DIR/SP/G            HT/PER
                 (UTC) (F)     (DEG/KT/KT) (MB)    (FT/S)
SABINE PASS      0848   80 85  180/ 11/ 18 1012.8
SEA RIM ST PARK  0900   80     180/ 14/ 18 1011.7
NORTH JETTY/GLS  0848          190/ 18/ 24   N/A
EAGLE POINT      0848   79 84  240/  7/  9 1011.0
MORGANS POINT    0848   79 84  200/  3/  4 1010.8
MISSION/ARANSAS  0800          220/ 11       N/A
PORT O`CONNOR    0848   81     170/ 11/ 15 1009.6
PORT ARANSAS     0800   84 84  190/ 18/ 20 1010.0
MALAQUITE BEACH  0848   84 86  170/ 18/ 23 1009.0
PORT ISABEL      0848   81 85              1010.2
$$



USA.gov is the U.S. government's official web portal to all federal, state and local government web resources and services.